DECAYED

CZ-6A DEB, 56585 (Decayed)

Orbit data source: Space-Track

CZ-6A DEB, 56585 was space debris in SSO originally from a launch on Fri, 11 Nov 2022 UTC launched from the Taiyaun Space Center, China (TSC). Debris objects in space refer to the collection of defunct objects orbiting the Earth. Examples of debris include non-operational satellites, rocket bodies, and fragments generated from explosions, collisions, or faulty payload assembly.

Not visible in the next 10 days
Identifier
56585, 2022-151ADH
Orbit
Decayed
Country
Flag of CNCN / PRC
Related business
Manufacturer
SAST
Mission
Decayed spacecraft
Bus & Motor
Unknown
Mass
Unknown
Launch date (UTC)
2022-11-11 (4 years ago)
Launch vehicle
Unknown
Launch site
Taiyaun Space Center, China (TSC)
Object type
Payload
Rocket body
Debris
Shape & HBR
Unknown shape, 0.1 m
Radar Cross Section
Small (<0.1 m²)

Expand to show TLE details & history
Last TLE update: 8 months ago

TLE from 8 months ago
0 CZ-6A DEB
1 56585U 22151ADH 26012.48915800  .02591461  00000-0  15925-1 0  9997
2 56585  98.5834  93.9451 0019940 316.9167  43.0532 15.73894390157329
Epoch: 2026-01-12T11:44Z
TLE epoch observation values (Epoch: 2026-01-12T11:44:23.251Z)
Latitude
0.00001°
Longitude
165.8631°
Altitude
341.115 km
Speed
7.71 km/s
True Right ascension
06h 15m 46s
True Declination
0° 00' 00"
Sunlit
Object was in full shadow at epoch
Visualization orbit readout
Latitude
Unknown
Longitude
Unknown
Altitude
Unknown
Speed
Unknown
Apparent Right ascension
Unknown
Apparent Declination
Unknown
Sunlit
N/A
Visualization observer readout
Local Sidereal Time
14:05:57
Azimuth
Unknown
Elevation
Unknown
Doppler factor
Unknown
Orbital elements
Apogee altitude
358.134 km
Perigee altitude
331.324 km
Semi-major axis
6,722.866 km
Eccentricity
0.00199
Inclination
98.5834°
RAAN
93.9451°
Arg. of periapsis
316.9167°
True anomaly
43.20947°
Mean anomaly
43.0532°
Eccentric anomaly
43.13131°
Mean motion
3.93742 °/min
Orbital period
91.43 mins
BSTAR
0.015925
Loading maneuver chart data...
Computing Atmospheric mass density...
Loading historical data...
Loading historical data...
Loading historical data...
Loading historical data...
Loading historical data...
Loading historical data...
Loading historical data...

Documentation

Showing up to 5 results
|